Simultaneous Nadir Overpasses (SNOs) Predictions

Prediction of SNOs between LANDSAT-8 and METOP-B Satellite Orbit:

Table of predicted SNOs for the next 14.0 days since TLE Epoch: 12/1/2018
Index Date (LANDSAT-8) Time (LANDSAT-8) Lat,Lon (LANDSAT-8) SZA (LANDSAT-8 ) Date (METOP-B) Time (METOP-B) Lat,Lon (METOP-B) SZA (METOP-B ) Distance(km) Time Diff (sec)
1 12/02/2018 17:43:11 81.11, -46.21 105.28 12/02/2018 17:42:33 81.10, -46.11 105.28 1.58 38
2 12/02/2018 18:32:37 -81.12, 121.72 74.67 12/02/2018 18:33:12 -81.12, 121.81 74.65 1.54 35
3 12/05/2018 13:17:25 81.10, 20.08 105.61 12/05/2018 13:16:58 81.09, 19.98 105.59 1.85 27
4 12/05/2018 14:06:51 -81.12,-171.97 74.34 12/05/2018 14:07:37 -81.11,-172.08 74.34 1.82 46
5 12/08/2018 08:51:39 81.11, 86.69 105.93 12/08/2018 08:51:22 81.11, 86.80 105.93 2.04 17
6 12/08/2018 09:41:05 -81.13,-105.34 74.03 12/08/2018 09:42:01 -81.13,-105.22 73.99 2.15 56
7 12/11/2018 04:25:53 81.11, 153.25 106.18 12/11/2018 04:25:47 81.11, 153.25 106.17 0.61 6
8 12/11/2018 05:15:20 -81.11, -39.12 73.83 12/11/2018 05:16:27 -81.12, -39.12 73.80 0.54 67
9 12/13/2018 23:10:43 -81.07, 51.39 73.76 12/13/2018 23:09:34 -81.07, 51.31 73.79 1.46 69




NCC Satellite Simultaneous Nadir Overpasses (SNOs) Prediction Service
